Orbital Elements at Epoch 2459200.5 (2020-Dec-17.0) TDB
Reference: JPL 153 (heliocentric ecliptic J2000)
Element | Value | Uncertainty (1-sigma) | Units |
e | .4623734484868526 | 6.9791e-08 | |
a | 1.341999474674412 | 2.9315e-09 | au |
q | .7214945497016597 | 9.3597e-08 | au |
i | 28.30637122163636 | 9.5601e-06 | deg |
node | 185.6312489553616 | 6.3374e-06 | deg |
peri | 6.059938327318061 | 9.2838e-06 | deg |
M | 206.2638874472393 | 1.5053e-05 | deg |
tp | 2459442.993632908869 (2021-Aug-16.49363291) | 2.3742e-05 | TDB |
period | 567.8412599201959 1.55 | 1.8606e-06 5.094e-09 | d yr |
n | .6339799965409245 | 2.0774e-09 | deg/d |
Q | 1.962504399647165 | 4.287e-09 | au |
|
| | Orbit Determination Parameters
Additional Information
|